Miscellaneous Local Product
Issued by NWS North Platte, NE

Home | Current Version | Previous Version | Graphics & Text | Print | Product List | Glossary On
Versions: 1 2 3 4 5 6 7 8 9 10 11 12 13 14 15 16 17 18 19 20 21 22 23 24 25 26 27 28 29 30 31 32 33 34 35 36 37 38 39 40 41 42 43 44 45 46 47 48 49 50
000
AXUS43 KLBF 211110
MISLBF


WESTERN AND NORTH CENTRAL NEBRASKA HOURLY WEATHER ROUNDUP
NATIONAL WEATHER SERVICE NORTH PLATTE NE
500 AM CST SUN DEC 21 2014

***STATIONS NOT REPORTING VARIABLES SUCH AS SKY/WEATHER OR
PRESSURE ARE PROVIDED BY THE NEBRASKA DEPARTMENT OF
ROADS...RAWS...AND APRS NETWORKS...AND ARE NOT UNDER
NATIONAL WEATHER SERVICE QUALITY CONTROL***

...OBSERVATIONS IN AND NEAR THE EASTERN PANHANDLE OF NEBRASKA...

CITY           SKY/WX    TMP DP  RH WIND       PRES   REMARKS
PINE RIDGE     CLEAR     28  22  78 W3        29.69F
CHADRON        CLEAR     27  22  81 SW8       29.70F WCI  19
ALLIANCE       CLEAR     22  18  85 SW8       29.73F WCI  12
SIDNEY         CLEAR     24  20  84 SW10      29.79F WCI  14
WHITECLAY        N/A     23  19  87 E7          N/A  WCI  14
CRESCENT LAKE    N/A     33  23  66 SW7         N/A  WCI  27
LISCO            N/A     29  22  75 W3          N/A
BIG SPRINGS      N/A     25  22  87 CALM        N/A
$$

...OBSERVATIONS IN NORTH CENTRAL NEBRASKA...

CITY           SKY/WX    TMP DP  RH WIND       PRES   REMARKS
VALENTINE      MOCLDY    26  23  88 CALM      29.73F
THEDFORD       CLOUDY    30  28  92 CALM      29.77F
AINSWORTH      CLOUDY    32  26  78 SW9       29.74F WCI  24
O`NEILL        CLOUDY    25  25  99 S3        29.79F
BROKEN BOW     MOCLDY    30  26  85 CALM      29.79F
BROWNLEE         N/A     28  23  84 S9          N/A  WCI  19
SPRINGVIEW       N/A     22  20  92 CALM        N/A
BREWSTER         N/A     30  28  93 CALM        N/A
ROSE             N/A     30  30 100 SE6         N/A  WCI  24
SARGENT          N/A     18  17  94 CALM        N/A
COMSTOCK         N/A     34  32  92 SW5         N/A  WCI  30
CHAMBERS         N/A     23  22  96 CALM        N/A
EWING            N/A     27  26  97 S3          N/A
$$

...OBSERVATIONS IN SOUTHWEST NEBRASKA AND FAR NORTHEAST COLORADO...

CITY           SKY/WX    TMP DP  RH WIND       PRES   REMARKS
WRAY           PTSUNNY   30  27  88 W8        29.83S WCI  22
HOLYOKE        FAIR      32  27  80 W6        29.81F WCI  26
IMPERIAL       MOCLDY    32  25  75 NW6       29.82F WCI  26
OGALLALA       MOCLDY    25  23  93 SW5       29.80F WCI  19
NORTH PLATTE   CLOUDY    27  25  92 CALM      29.81F
MCCOOK         CLOUDY    30  28  92 CALM      29.82F
LEXINGTON      CLOUDY    32  29  90 S5        29.83F WCI  27
PAXTON           N/A     28  26  90 CALM        N/A
BRADY            N/A     26  24  90 CALM        N/A
GOTHENBURG       N/A     29  25  84 CALM        N/A
CALLAWAY         N/A     34  30  85 SW3         N/A
$$

...NORTH PLATTE AREA...

CITY           SKY/WX    TMP DP  RH WIND       PRES   REMARKS
AIRPORT        CLOUDY    27  25  92 CALM      29.81F
DOWNTOWN         N/A     28  25  89 CALM        N/A
$$

...SOME WEATHER OBSERVATIONS FROM AROUND THE REGION...

CITY           SKY/WX    TMP DP  RH WIND       PRES   REMARKS
DENVER         PTCLDY    25  19  78 S9        29.80F WCI  15
LARAMIE        PTCLDY    28  20  71 S16       29.80F WCI  16
CHEYENNE       PTCLDY    37  19  48 W20G28    29.76F WCI  27
SCOTTSBLUFF    CLEAR     21  16  81 E6        29.74F WCI  13
RAPID CITY     CLEAR     23  20  88 CALM      29.63F
PIERRE         MOCLDY    23  22  96 E8        29.70F WCI  14
WINNER         CLOUDY    39  27  62 SW13      29.72F WCI  31
SIOUX FALLS    FOG       31  31 100 S13       29.81F VSB 3/4 WCI  21
OMAHA          CLOUDY    37  35  92 S10       29.94F FOG     WCI  30
GRAND ISLAND   PTCLDY    31  30  96 S7        29.86F WCI  24
KANSAS CITY    CLOUDY    37  34  89 S13       30.05F WCI  29
WICHITA        CLOUDY    42  36  79 S14       30.00F
HAYS           CLOUDY    30  23  74 S6        29.92F VSB 1   WCI  24
LIBERAL        CLOUDY    36  32  87 S12       29.89F WCI  27
GOODLAND       CLOUDY    33  29  85 CALM      29.82F
$$



USA.gov is the U.S. government's official web portal to all federal, state and local government web resources and services.